Showing default

ELEKTRON 1, 746

Orbit data source: Space-Track

ELEKTRON 1, 746 is a payload satellite owned by OKB-1 (CIS) that was launched on Thu, 30 Jan 1964 UTC via a VOSTOK 8K72 launch vehicle from the Tyuratam Missile And Space Complex (TTMTR). Payload-class satellites include a variety of spacecraft equipped with specific instruments for various scientific and technological missions. These include communications satellites like Starlink; space stations such as the ISS; scientific satellites like the Hubble; Earth observation satellites from companies like Planet Labs, Umbra, and HawkEye 360; GPS; miniature CubeSats for education and research; and military/defense satellites.

Loading next visibility...
Identifier
746, 1964-006A
Orbit
Active
Country
Flag of CISCIS
Related business
Manufacturer
OKB-1
Mission
Spacecraft
Bus & Motor
OBJECT D, SRM
Mass
350 kg wet, 350 kg dry
Launch date (UTC)
1964-01-30 (62 years ago)
Launch vehicle
VOSTOK 8K72
Launch site
Tyuratam Missile And Space Complex (TTMTR)
Object type
Payload
Rocket body
Debris
Shape & HBR
Unknown
Radar Cross Section
Large (>1 m²)

Expand to show TLE details & history
Last TLE update: 23 hours ago

TLE from 23 hours ago
0 ELEKTRON 1
1 00746U 64006A   25342.66499726  .00004030  00000-0  11206-2 0  9997
2 00746  60.8752  86.3589 2994705 178.1938 183.3286  9.10339591 49890
Epoch: 2025-12-08T15:57Z
TLE epoch observation values (Epoch: 2025-12-08T15:57:35.763Z)
Latitude
0.00002°
Longitude
129.29912°
Altitude
6,210.637 km
Speed
4.712 km/s
True Right ascension
05h 45m 26s
True Declination
0° 00' 00"
Sunlit
Object was in full shadow at epoch
Visualization orbit readout
Latitude
Unknown
Longitude
Unknown
Altitude
Unknown
Speed
Unknown
Apparent Right ascension
Unknown
Apparent Declination
Unknown
Sunlit
N/A
Visualization observer readout
Local Sidereal Time
12:43:29
Azimuth
Unknown
Elevation
Unknown
Doppler factor
Unknown
Orbital elements
Apogee altitude
6,211.087 km
Perigee altitude
408.568 km
Semi-major axis
9,687.965 km
Eccentricity
0.29947
Inclination
60.8752°
RAAN
86.3589°
Arg. of periapsis
178.1938°
True anomaly
181.88101°
Mean anomaly
183.3286°
Eccentric anomaly
182.5617°
Mean motion
2.27612 °/min
Orbital period
158.16 mins
BSTAR
0.0011206
Loading maneuver chart data...
Computing Atmospheric mass density...

Documentation

Showing up to 5 results
|